Time,TemperatureF,DewpointF,PressureIn,WindDirection,WindDirectionDegrees,WindSpeedMPH,WindSpeedGustMPH,Humidity,HourlyPrecipIn,Conditions,Clouds,dailyrainin,SoftwareType,DateUTC
2013-07-21 00:02:00,81.4,77.2,29.99,West,262,2.0,10.0,87,0.00,,,0.00,Wunderground v.1.15,2013-07-21 05:02:00,
2013-07-21 00:08:00,81.5,77.3,29.99,South,187,2.0,10.0,87,0.00,,,0.00,Wunderground v.1.15,2013-07-21 05:08:00,
2013-07-21 00:14:00,81.4,77.2,29.99,SW,226,6.0,6.0,87,0.00,,,0.00,Wunderground v.1.15,2013-07-21 05:14:00,
2013-07-21 00:19:00,81.4,77.5,29.99,SSE,148,5.0,6.0,88,0.00,,,0.00,Wunderground v.1.15,2013-07-21 05:19:00,
2013-07-21 00:25:00,81.3,77.1,29.99,SW,214,6.0,6.0,87,0.00,,,0.00,Wunderground v.1.15,2013-07-21 05:25:00,
2013-07-21 00:31:00,81.3,77.4,29.99,SW,226,3.0,4.0,88,0.00,,,0.00,Wunderground v.1.15,2013-07-21 05:31:00,
2013-07-21 00:37:00,81.2,77.3,29.99,SSW,207,4.0,7.0,88,0.00,,,0.00,Wunderground v.1.15,2013-07-21 05:37:00,
2013-07-21 00:43:00,81.2,77.3,29.99,SW,236,4.0,4.0,88,0.00,,,0.00,Wunderground v.1.15,2013-07-21 05:43:00,
2013-07-21 00:49:00,81.3,77.4,29.99,West,270,5.0,5.0,88,0.00,,,0.00,Wunderground v.1.15,2013-07-21 05:49:00,
2013-07-21 00:54:00,81.3,77.4,29.98,South,181,6.0,6.0,88,0.00,,,0.00,Wunderground v.1.15,2013-07-21 05:54:00,
2013-07-21 01:00:00,81.2,77.3,29.98,SSW,205,6.0,6.0,88,0.00,,,0.00,Wunderground v.1.15,2013-07-21 06:00:00,
2013-07-21 01:06:00,81.2,77.6,29.98,SSW,210,6.0,6.0,89,0.00,,,0.00,Wunderground v.1.15,2013-07-21 06:06:00,
2013-07-21 01:12:00,81.1,77.5,29.98,SW,222,6.0,6.0,89,0.00,,,0.00,Wunderground v.1.15,2013-07-21 06:12:00,
2013-07-21 01:18:00,81.0,77.1,29.98,SSW,192,2.0,10.0,88,0.00,,,0.00,Wunderground v.1.15,2013-07-21 06:18:00,
2013-07-21 01:23:00,81.0,77.1,29.98,WSW,248,1.0,10.0,88,0.00,,,0.00,Wunderground v.1.15,2013-07-21 06:23:00,
2013-07-21 01:29:00,81.0,77.1,29.98,WSW,256,4.0,10.0,88,0.00,,,0.00,Wunderground v.1.15,2013-07-21 06:29:00,
2013-07-21 01:35:00,80.9,77.0,29.98,SSW,204,8.0,8.0,88,0.00,,,0.00,Wunderground v.1.15,2013-07-21 06:35:00,
2013-07-21 01:41:00,81.0,77.1,29.98,WSW,256,3.0,5.0,88,0.00,,,0.00,Wunderground v.1.15,2013-07-21 06:41:00,
2013-07-21 01:47:00,80.9,76.7,29.98,SW,226,4.0,6.0,87,0.00,,,0.00,Wunderground v.1.15,2013-07-21 06:47:00,
2013-07-21 01:53:00,81.0,76.8,29.98,SW,224,4.0,6.0,87,0.00,,,0.00,Wunderground v.1.15,2013-07-21 06:53:00,
2013-07-21 01:59:00,81.0,76.8,29.98,SSW,211,7.0,7.0,87,0.00,,,0.00,Wunderground v.1.15,2013-07-21 06:59:00,
2013-07-21 02:04:00,80.9,76.7,29.98,SW,232,5.0,6.0,87,0.00,,,0.00,Wunderground v.1.15,2013-07-21 07:04:00,
2013-07-21 02:09:00,80.8,76.6,29.98,SSW,200,6.0,9.0,87,0.00,,,0.00,Wunderground v.1.15,2013-07-21 07:09:00,
2013-07-21 02:14:00,80.8,76.9,29.98,WNW,291,3.0,9.0,88,0.00,,,0.00,Wunderground v.1.15,2013-07-21 07:14:00,
2013-07-21 02:19:00,80.7,76.8,29.98,SW,230,2.0,9.0,88,0.00,,,0.00,Wunderground v.1.15,2013-07-21 07:19:00,
2013-07-21 02:24:00,80.5,76.6,29.98,WNW,291,2.0,6.0,88,0.00,,,0.00,Wunderground v.1.15,2013-07-21 07:24:00,
2013-07-21 02:29:00,80.5,76.6,29.98,SSW,210,3.0,9.0,88,0.00,,,0.00,Wunderground v.1.15,2013-07-21 07:29:00,
2013-07-21 02:34:00,80.5,76.6,29.98,SW,221,2.0,10.0,88,0.00,,,0.00,Wunderground v.1.15,2013-07-21 07:34:00,
2013-07-21 02:39:00,80.4,76.2,29.97,SW,224,3.0,10.0,87,0.00,,,0.00,Wunderground v.1.15,2013-07-21 07:39:00,
2013-07-21 02:44:00,80.4,76.5,29.98,SSW,198,1.0,9.0,88,0.00,,,0.00,Wunderground v.1.15,2013-07-21 07:44:00,
2013-07-21 02:49:00,80.4,76.2,29.98,SW,226,2.0,10.0,87,0.00,,,0.00,Wunderground v.1.15,2013-07-21 07:49:00,
2013-07-21 02:54:00,80.4,76.5,29.97,SW,228,2.0,8.0,88,0.00,,,0.00,Wunderground v.1.15,2013-07-21 07:54:00,
2013-07-21 02:59:00,80.3,76.4,29.97,WSW,256,7.0,8.0,88,0.00,,,0.00,Wunderground v.1.15,2013-07-21 07:59:00,
2013-07-21 03:04:00,80.3,76.4,29.97,SW,224,5.0,9.0,88,0.00,,,0.00,Wunderground v.1.15,2013-07-21 08:04:00,
2013-07-21 03:09:00,80.3,76.8,29.97,South,183,8.0,9.0,89,0.00,,,0.00,Wunderground v.1.15,2013-07-21 08:09:00,
2013-07-21 03:14:00,80.3,76.4,29.97,SW,235,3.0,12.0,88,0.00,,,0.00,Wunderground v.1.15,2013-07-21 08:14:00,
2013-07-21 03:19:00,80.3,76.4,29.98,SW,225,7.0,12.0,88,0.00,,,0.00,Wunderground v.1.15,2013-07-21 08:19:00,
2013-07-21 03:24:00,80.3,76.8,29.98,South,187,6.0,10.0,89,0.00,,,0.00,Wunderground v.1.15,2013-07-21 08:24:00,
2013-07-21 03:29:00,80.2,76.3,29.97,WSW,244,5.0,10.0,88,0.00,,,0.00,Wunderground v.1.15,2013-07-21 08:29:00,
2013-07-21 03:34:00,80.2,76.0,29.98,SSW,212,3.0,9.0,87,0.00,,,0.00,Wunderground v.1.15,2013-07-21 08:34:00,
2013-07-21 03:39:00,80.2,76.0,29.98,WSW,248,4.0,9.0,87,0.00,,,0.00,Wunderground v.1.15,2013-07-21 08:39:00,
2013-07-21 03:44:00,80.2,76.3,29.98,SSE,164,4.0,9.0,88,0.00,,,0.00,Wunderground v.1.15,2013-07-21 08:44:00,
2013-07-21 03:49:00,80.2,76.3,29.98,SW,226,4.0,9.0,88,0.00,,,0.00,Wunderground v.1.15,2013-07-21 08:49:00,
2013-07-21 03:54:00,80.1,75.9,29.98,WSW,246,2.0,8.0,87,0.00,,,0.00,Wunderground v.1.15,2013-07-21 08:54:00,
2013-07-21 03:59:00,80.0,75.8,29.98,South,172,3.0,9.0,87,0.00,,,0.00,Wunderground v.1.15,2013-07-21 08:59:00,
2013-07-21 04:04:00,79.9,75.7,29.98,WSW,245,4.0,6.0,87,0.00,,,0.00,Wunderground v.1.15,2013-07-21 09:04:00,
2013-07-21 04:09:00,79.9,75.7,29.98,West,278,1.0,7.0,87,0.00,,,0.00,Wunderground v.1.15,2013-07-21 09:09:00,
2013-07-21 04:14:00,79.9,75.7,29.98,WSW,240,4.0,6.0,87,0.00,,,0.00,Wunderground v.1.15,2013-07-21 09:14:00,
2013-07-21 04:19:00,79.8,75.6,29.98,WSW,242,3.0,6.0,87,0.00,,,0.00,Wunderground v.1.15,2013-07-21 09:19:00,
2013-07-21 04:24:00,79.9,75.7,29.98,SSE,154,3.0,8.0,87,0.00,,,0.00,Wunderground v.1.15,2013-07-21 09:24:00,
2013-07-21 04:29:00,79.9,76.0,29.98,SW,236,1.0,8.0,88,0.00,,,0.00,Wunderground v.1.15,2013-07-21 09:29:00,
2013-07-21 04:34:00,79.9,76.0,29.98,South,190,4.0,6.0,88,0.00,,,0.00,Wunderground v.1.15,2013-07-21 09:34:00,
2013-07-21 04:39:00,80.0,76.1,29.98,WSW,250,3.0,7.0,88,0.00,,,0.00,Wunderground v.1.15,2013-07-21 09:39:00,
2013-07-21 04:44:00,80.0,76.1,29.98,SSE,160,0.0,7.0,88,0.00,,,0.00,Wunderground v.1.15,2013-07-21 09:44:00,
2013-07-21 04:49:00,80.0,76.5,29.98,WSW,238,1.0,7.0,89,0.00,,,0.00,Wunderground v.1.15,2013-07-21 09:49:00,
2013-07-21 04:54:00,79.9,76.4,29.98,West,271,2.0,7.0,89,0.00,,,0.00,Wunderground v.1.15,2013-07-21 09:54:00,
2013-07-21 04:59:00,80.0,76.5,29.98,South,172,3.0,7.0,89,0.00,,,0.00,Wunderground v.1.15,2013-07-21 09:59:00,
2013-07-21 05:04:00,80.1,76.2,29.98,SW,226,1.0,6.0,88,0.00,,,0.00,Wunderground v.1.15,2013-07-21 10:04:00,
2013-07-21 05:09:00,80.1,76.2,29.99,WSW,239,1.0,10.0,88,0.00,,,0.00,Wunderground v.1.15,2013-07-21 10:09:00,
2013-07-21 05:14:00,79.9,75.3,29.99,SSW,207,3.0,6.0,86,0.00,,,0.00,Wunderground v.1.15,2013-07-21 10:14:00,
2013-07-21 05:19:00,79.8,75.6,29.99,WSW,249,0.0,6.0,87,0.00,,,0.00,Wunderground v.1.15,2013-07-21 10:19:00,
2013-07-21 05:24:00,79.7,75.8,29.99,West,269,2.0,3.0,88,0.00,,,0.00,Wunderground v.1.15,2013-07-21 10:24:00,
2013-07-21 05:29:00,79.5,75.6,29.99,WNW,284,2.0,3.0,88,0.00,,,0.00,Wunderground v.1.15,2013-07-21 10:29:00,
2013-07-21 05:34:00,79.5,76.0,29.99,West,280,3.0,5.0,89,0.00,,,0.00,Wunderground v.1.15,2013-07-21 10:34:00,
2013-07-21 05:39:00,79.4,76.2,29.99,West,271,0.0,5.0,90,0.00,,,0.00,Wunderground v.1.15,2013-07-21 10:39:00,
2013-07-21 05:44:00,79.2,76.3,30.00,SSW,198,2.0,2.0,91,0.00,,,0.00,Wunderground v.1.15,2013-07-21 10:44:00,
2013-07-21 05:49:00,79.0,76.1,30.00,SSE,148,1.0,4.0,91,0.00,,,0.01,Wunderground v.1.15,2013-07-21 10:49:00,
2013-07-21 05:54:00,78.9,76.4,30.00,SSE,148,0.0,1.0,92,0.00,,,0.01,Wunderground v.1.15,2013-07-21 10:54:00,
2013-07-21 05:59:00,78.6,76.1,30.00,WSW,242,1.0,3.0,92,0.05,,,0.02,Wunderground v.1.15,2013-07-21 10:59:00,
2013-07-21 06:04:00,78.4,76.2,30.00,WSW,242,0.0,1.0,93,0.09,,,0.03,Wunderground v.1.15,2013-07-21 11:04:00,
2013-07-21 06:09:00,78.2,76.0,30.00,WSW,242,0.0,1.0,93,0.14,,,0.04,Wunderground v.1.15,2013-07-21 11:09:00,
2013-07-21 06:14:00,78.1,76.2,30.00,ENE,72,1.0,2.0,94,0.51,,,0.11,Wunderground v.1.15,2013-07-21 11:14:00,
2013-07-21 06:19:00,77.8,76.3,30.00,NW,314,1.0,2.0,95,0.10,,,0.11,Wunderground v.1.15,2013-07-21 11:19:00,
2013-07-21 06:24:00,77.6,76.1,30.01,WNW,300,1.0,3.0,95,0.05,,,0.11,Wunderground v.1.15,2013-07-21 11:24:00,
2013-07-21 06:29:00,77.5,76.0,30.01,NW,309,1.0,3.0,95,1.10,,,0.13,Wunderground v.1.15,2013-07-21 11:29:00,
2013-07-21 06:34:00,77.6,76.1,30.00,NW,314,2.0,5.0,95,0.22,,,0.22,Wunderground v.1.15,2013-07-21 11:34:00,
2013-07-21 06:39:00,77.6,76.1,30.01,West,270,1.0,5.0,95,0.08,,,0.22,Wunderground v.1.15,2013-07-21 11:39:00,
2013-07-21 06:44:00,77.6,76.1,30.00,East,87,1.0,2.0,95,0.25,,,0.24,Wunderground v.1.15,2013-07-21 11:44:00,
2013-07-21 06:49:00,77.4,75.9,30.01,East,86,0.0,2.0,95,0.08,,,0.24,Wunderground v.1.15,2013-07-21 11:49:00,
2013-07-21 06:54:00,77.4,76.2,30.01,East,86,0.0,1.0,96,0.05,,,0.24,Wunderground v.1.15,2013-07-21 11:54:00,
2013-07-21 06:59:00,77.3,76.1,30.01,SE,136,0.0,1.0,96,0.00,,,0.24,Wunderground v.1.15,2013-07-21 11:59:00,
2013-07-21 07:04:00,77.4,76.2,30.01,SE,136,0.0,1.0,96,0.00,,,0.25,Wunderground v.1.15,2013-07-21 12:04:00,
2013-07-21 07:09:00,77.2,76.0,30.01,WNW,294,3.0,3.0,96,0.00,,,0.25,Wunderground v.1.15,2013-07-21 12:09:00,
2013-07-21 07:14:00,77.4,76.2,30.01,West,264,1.0,5.0,96,0.00,,,0.25,Wunderground v.1.15,2013-07-21 12:14:00,
2013-07-21 07:19:00,77.4,76.2,30.01,ENE,76,1.0,5.0,96,0.00,,,0.25,Wunderground v.1.15,2013-07-21 12:19:00,
2013-07-21 07:24:00,77.7,76.5,30.01,WSW,255,1.0,3.0,96,0.00,,,0.25,Wunderground v.1.15,2013-07-21 12:24:00,
2013-07-21 07:29:00,77.9,76.4,30.01,WNW,290,2.0,3.0,95,0.00,,,0.25,Wunderground v.1.15,2013-07-21 12:29:00,
2013-07-21 07:34:00,77.9,76.4,30.01,North,354,0.0,2.0,95,0.00,,,0.25,Wunderground v.1.15,2013-07-21 12:34:00,
2013-07-21 07:39:00,77.8,76.3,30.01,East,82,1.0,2.0,95,0.00,,,0.25,Wunderground v.1.15,2013-07-21 12:39:00,
2013-07-21 07:44:00,77.9,76.4,30.01,North,359,0.0,1.0,95,0.00,,,0.25,Wunderground v.1.15,2013-07-21 12:44:00,
2013-07-21 07:49:00,78.0,76.5,30.02,West,267,0.0,2.0,95,0.00,,,0.25,Wunderground v.1.15,2013-07-21 12:49:00,
2013-07-21 07:54:00,78.3,76.7,30.02,NNW,342,0.0,2.0,95,0.00,,,0.25,Wunderground v.1.15,2013-07-21 12:54:00,
2013-07-21 07:59:00,78.7,77.1,30.02,NNW,340,0.0,2.0,95,0.00,,,0.25,Wunderground v.1.15,2013-07-21 12:59:00,
2013-07-21 08:04:00,79.8,77.9,30.02,SW,233,1.0,4.0,94,0.00,,,0.25,Wunderground v.1.15,2013-07-21 13:04:00,
2013-07-21 08:09:00,81.1,77.9,30.01,SW,231,4.0,6.0,90,0.00,,,0.25,Wunderground v.1.15,2013-07-21 13:09:00,
2013-07-21 08:14:00,81.9,78.3,30.01,SW,221,0.0,6.0,89,0.00,,,0.25,Wunderground v.1.15,2013-07-21 13:14:00,
2013-07-21 08:19:00,82.4,78.1,30.01,WNW,284,2.0,8.0,87,0.00,,,0.25,Wunderground v.1.15,2013-07-21 13:19:00,
2013-07-21 08:24:00,82.8,78.5,30.02,WSW,256,2.0,6.0,87,0.00,,,0.25,Wunderground v.1.15,2013-07-21 13:24:00,
2013-07-21 08:29:00,83.2,78.6,30.02,SW,232,1.0,6.0,86,0.00,,,0.25,Wunderground v.1.15,2013-07-21 13:29:00,
2013-07-21 08:34:00,83.5,78.5,30.02,WSW,240,1.0,7.0,85,0.00,,,0.25,Wunderground v.1.15,2013-07-21 13:34:00,
2013-07-21 08:39:00,83.7,79.1,30.02,South,169,3.0,7.0,86,0.00,,,0.25,Wunderground v.1.15,2013-07-21 13:39:00,
2013-07-21 08:44:00,83.9,78.9,30.02,WSW,240,5.0,5.0,85,0.00,,,0.25,Wunderground v.1.15,2013-07-21 13:44:00,
2013-07-21 08:49:00,84.1,78.7,30.02,SSW,204,2.0,7.0,84,0.00,,,0.25,Wunderground v.1.15,2013-07-21 13:49:00,
2013-07-21 08:54:00,84.3,78.9,30.02,WNW,294,3.0,6.0,84,0.00,,,0.25,Wunderground v.1.15,2013-07-21 13:54:00,
2013-07-21 08:59:00,84.5,78.4,30.02,South,191,3.0,8.0,82,0.00,,,0.25,Wunderground v.1.15,2013-07-21 13:59:00,
2013-07-21 09:04:00,84.7,78.6,30.02,SSW,208,2.0,10.0,82,0.00,,,0.25,Wunderground v.1.15,2013-07-21 14:04:00,
2013-07-21 09:09:00,85.2,79.1,30.01,West,272,1.0,10.0,82,0.00,,,0.25,Wunderground v.1.15,2013-07-21 14:09:00,
2013-07-21 09:14:00,85.2,78.7,30.01,SSE,159,2.0,6.0,81,0.00,,,0.25,Wunderground v.1.15,2013-07-21 14:14:00,
2013-07-21 09:19:00,84.7,78.2,30.01,West,270,4.0,7.0,81,0.00,,,0.25,Wunderground v.1.15,2013-07-21 14:19:00,
2013-07-21 09:25:00,84.0,77.9,30.01,WSW,248,0.0,8.0,82,0.00,,,0.25,Wunderground v.1.15,2013-07-21 14:25:00,
2013-07-21 09:30:00,83.8,77.7,30.01,WNW,291,0.0,3.0,82,0.00,,,0.25,Wunderground v.1.15,2013-07-21 14:30:00,
2013-07-21 09:35:00,83.9,78.5,30.02,SW,226,4.0,7.0,84,0.00,,,0.25,Wunderground v.1.15,2013-07-21 14:35:00,
2013-07-21 09:40:00,83.5,77.8,30.02,SSW,207,2.0,3.0,83,0.00,,,0.25,Wunderground v.1.15,2013-07-21 14:40:00,
2013-07-21 09:45:00,83.2,77.9,30.02,WSW,245,1.0,5.0,84,0.00,,,0.25,Wunderground v.1.15,2013-07-21 14:45:00,
2013-07-21 09:50:00,83.0,77.7,30.02,WSW,242,4.0,7.0,84,0.00,,,0.25,Wunderground v.1.15,2013-07-21 14:50:00,
2013-07-21 09:55:00,82.7,77.7,30.03,SSW,200,3.0,7.0,85,0.00,,,0.25,Wunderground v.1.15,2013-07-21 14:55:00,
2013-07-21 10:00:00,82.5,77.5,30.03,South,190,4.0,4.0,85,0.00,,,0.25,Wunderground v.1.15,2013-07-21 15:00:00,
2013-07-21 10:05:00,82.3,77.7,30.03,WSW,252,3.0,6.0,86,0.00,,,0.25,Wunderground v.1.15,2013-07-21 15:05:00,
2013-07-21 10:10:00,82.2,77.6,30.03,SSE,154,1.0,3.0,86,0.00,,,0.25,Wunderground v.1.15,2013-07-21 15:10:00,
2013-07-21 10:15:00,82.1,77.1,30.03,South,176,7.0,22.0,85,0.00,,,0.25,Wunderground v.1.15,2013-07-21 15:15:00,
2013-07-21 10:20:00,80.1,74.5,30.04,SE,142,7.0,8.0,83,0.00,,,0.25,Wunderground v.1.15,2013-07-21 15:20:00,
2013-07-21 10:25:00,78.9,74.7,30.04,WNW,300,5.0,14.0,87,0.00,,,0.25,Wunderground v.1.15,2013-07-21 15:25:00,
2013-07-21 10:30:00,78.2,74.4,30.04,NW,322,3.0,7.0,88,0.00,,,0.25,Wunderground v.1.15,2013-07-21 15:30:00,
2013-07-21 10:35:00,78.2,74.7,30.04,SSE,158,2.0,11.0,89,0.00,,,0.25,Wunderground v.1.15,2013-07-21 15:35:00,
2013-07-21 10:40:00,78.5,75.0,30.04,SW,225,7.0,9.0,89,0.00,,,0.25,Wunderground v.1.15,2013-07-21 15:40:00,
2013-07-21 10:45:00,78.8,74.6,30.04,SW,233,2.0,10.0,87,0.00,,,0.25,Wunderground v.1.15,2013-07-21 15:45:00,
2013-07-21 10:50:00,79.1,74.9,30.03,WSW,250,4.0,7.0,87,0.00,,,0.25,Wunderground v.1.15,2013-07-21 15:50:00,
2013-07-21 10:55:00,79.4,75.2,30.04,NNW,336,1.0,7.0,87,0.00,,,0.25,Wunderground v.1.15,2013-07-21 15:55:00,
2013-07-21 11:00:00,79.6,74.7,30.04,West,270,6.0,7.0,85,0.00,,,0.25,Wunderground v.1.15,2013-07-21 16:00:00,
2013-07-21 11:05:00,80.0,75.8,30.04,South,191,2.0,7.0,87,0.00,,,0.25,Wunderground v.1.15,2013-07-21 16:05:00,
2013-07-21 11:10:00,80.7,76.5,30.05,SW,215,2.0,6.0,87,0.00,,,0.25,Wunderground v.1.15,2013-07-21 16:10:00,
2013-07-21 11:15:00,80.9,76.7,30.05,SW,228,7.0,12.0,87,0.00,,,0.25,Wunderground v.1.15,2013-07-21 16:15:00,
2013-07-21 11:20:00,80.5,75.9,30.05,West,281,5.0,7.0,86,0.00,,,0.25,Wunderground v.1.15,2013-07-21 16:20:00,
2013-07-21 11:25:00,80.5,75.9,30.06,South,169,2.0,8.0,86,0.00,,,0.25,Wunderground v.1.15,2013-07-21 16:25:00,
2013-07-21 11:30:00,80.8,76.2,30.06,WNW,298,3.0,6.0,86,0.00,,,0.25,Wunderground v.1.15,2013-07-21 16:30:00,
2013-07-21 11:35:00,81.1,76.2,30.06,West,280,3.0,8.0,85,0.00,,,0.25,Wunderground v.1.15,2013-07-21 16:35:00,
2013-07-21 11:40:00,81.3,76.7,30.06,South,170,2.0,8.0,86,0.00,,,0.25,Wunderground v.1.15,2013-07-21 16:40:00,
2013-07-21 11:45:00,81.8,77.2,30.06,South,181,2.0,9.0,86,0.00,,,0.25,Wunderground v.1.15,2013-07-21 16:45:00,
2013-07-21 11:50:00,82.1,77.1,30.05,WSW,243,8.0,9.0,85,0.00,,,0.25,Wunderground v.1.15,2013-07-21 16:50:00,
2013-07-21 11:55:00,82.2,77.2,30.05,SSE,152,3.0,9.0,85,0.00,,,0.25,Wunderground v.1.15,2013-07-21 16:55:00,
2013-07-21 12:00:00,82.2,77.2,30.05,West,270,7.0,8.0,85,0.00,,,0.25,Wunderground v.1.15,2013-07-21 17:00:00,
2013-07-21 12:05:00,82.5,76.8,30.04,WSW,252,1.0,8.0,83,0.00,,,0.25,Wunderground v.1.15,2013-07-21 17:05:00,
2013-07-21 12:10:00,82.7,77.0,30.05,SSW,195,2.0,6.0,83,0.00,,,0.25,Wunderground v.1.15,2013-07-21 17:10:00,
2013-07-21 12:15:00,83.0,76.9,30.05,SW,214,5.0,11.0,82,0.00,,,0.25,Wunderground v.1.15,2013-07-21 17:15:00,
2013-07-21 12:20:00,83.1,77.0,30.05,SSW,210,3.0,6.0,82,0.00,,,0.25,Wunderground v.1.15,2013-07-21 17:20:00,
2013-07-21 12:25:00,82.6,76.9,30.05,WNW,290,3.0,9.0,83,0.00,,,0.25,Wunderground v.1.15,2013-07-21 17:25:00,
2013-07-21 12:30:00,82.2,76.2,30.05,South,169,6.0,6.0,82,0.00,,,0.25,Wunderground v.1.15,2013-07-21 17:30:00,
2013-07-21 12:35:00,81.8,76.1,30.05,South,184,6.0,10.0,83,0.00,,,0.25,Wunderground v.1.15,2013-07-21 17:35:00,
2013-07-21 12:40:00,81.7,76.4,30.05,SW,221,3.0,5.0,84,0.00,,,0.25,Wunderground v.1.15,2013-07-21 17:40:00,
2013-07-21 12:45:00,82.0,76.3,30.05,ESE,108,3.0,10.0,83,0.00,,,0.25,Wunderground v.1.15,2013-07-21 17:45:00,
2013-07-21 12:50:00,82.1,75.7,30.04,WSW,243,4.0,6.0,81,0.00,,,0.25,Wunderground v.1.15,2013-07-21 17:50:00,
2013-07-21 12:55:00,81.9,75.1,30.04,West,278,2.0,9.0,80,0.00,,,0.25,Wunderground v.1.15,2013-07-21 17:55:00,
2013-07-21 13:00:00,82.0,75.6,30.03,SW,230,3.0,8.0,81,0.00,,,0.25,Wunderground v.1.15,2013-07-21 18:00:00,
2013-07-21 13:05:00,82.5,75.7,30.03,SSW,200,5.0,8.0,80,0.00,,,0.25,Wunderground v.1.15,2013-07-21 18:05:00,
2013-07-21 13:06:00,82.5,75.7,30.03,SW,220,6.0,8.0,80,0.00,,,0.25,Wunderground v.1.15,2013-07-21 18:06:00,
2013-07-21 13:11:00,82.8,76.4,30.03,SW,221,2.0,4.0,81,0.00,,,0.25,Wunderground v.1.15,2013-07-21 18:11:00,
2013-07-21 13:16:00,83.2,76.4,30.03,West,263,2.0,9.0,80,0.00,,,0.25,Wunderground v.1.15,2013-07-21 18:16:00,
2013-07-21 13:21:00,83.8,77.3,30.03,South,190,2.0,3.0,81,0.00,,,0.25,Wunderground v.1.15,2013-07-21 18:21:00,
2013-07-21 13:26:00,83.8,76.2,30.03,West,274,4.0,10.0,78,0.00,,,0.25,Wunderground v.1.15,2013-07-21 18:26:00,
2013-07-21 13:31:00,83.4,76.2,30.03,West,280,2.0,4.0,79,0.00,,,0.25,Wunderground v.1.15,2013-07-21 18:31:00,
2013-07-21 13:36:00,82.6,75.8,30.04,SW,214,8.0,10.0,80,0.00,,,0.25,Wunderground v.1.15,2013-07-21 18:36:00,
2013-07-21 13:41:00,79.5,73.5,30.05,West,278,11.0,24.0,82,0.00,,,0.25,Wunderground v.1.15,2013-07-21 18:41:00,
2013-07-21 13:46:00,75.7,72.2,30.05,West,266,7.0,24.0,89,0.68,,,0.35,Wunderground v.1.15,2013-07-21 18:46:00,
2013-07-21 13:51:00,74.3,72.5,30.05,WNW,283,7.0,17.0,94,0.41,,,0.39,Wunderground v.1.15,2013-07-21 18:51:00,
2013-07-21 13:56:00,74.0,72.8,30.06,WSW,249,11.0,17.0,96,0.15,,,0.41,Wunderground v.1.15,2013-07-21 18:56:00,
2013-07-21 14:01:00,73.8,72.6,30.06,SW,219,4.0,8.0,96,1.25,,,0.56,Wunderground v.1.15,2013-07-21 19:01:00,
2013-07-21 14:06:00,73.6,72.4,30.05,WNW,286,4.0,15.0,96,0.60,,,0.61,Wunderground v.1.15,2013-07-21 19:06:00,
2013-07-21 14:11:00,73.6,72.7,30.05,West,278,3.0,8.0,97,0.19,,,0.63,Wunderground v.1.15,2013-07-21 19:11:00,
2013-07-21 14:16:00,73.6,72.7,30.05,West,263,3.0,8.0,97,0.15,,,0.64,Wunderground v.1.15,2013-07-21 19:16:00,
2013-07-21 14:21:00,73.7,72.8,30.05,WNW,287,7.0,8.0,97,0.10,,,0.65,Wunderground v.1.15,2013-07-21 19:21:00,
2013-07-21 14:26:00,73.9,73.0,30.04,NW,307,4.0,9.0,97,0.10,,,0.66,Wunderground v.1.15,2013-07-21 19:26:00,
2013-07-21 14:31:00,74.0,72.8,30.04,West,281,4.0,7.0,96,0.09,,,0.66,Wunderground v.1.15,2013-07-21 19:31:00,
2013-07-21 14:36:00,74.2,73.0,30.03,WNW,286,3.0,7.0,96,0.05,,,0.66,Wunderground v.1.15,2013-07-21 19:36:00,
2013-07-21 14:41:00,74.3,73.1,30.03,WNW,285,2.0,5.0,96,0.04,,,0.67,Wunderground v.1.15,2013-07-21 19:41:00,
2013-07-21 14:46:00,74.4,73.2,30.03,WNW,287,2.0,7.0,96,0.04,,,0.67,Wunderground v.1.15,2013-07-21 19:46:00,
2013-07-21 14:51:00,74.7,73.5,30.03,WNW,302,3.0,5.0,96,0.04,,,0.67,Wunderground v.1.15,2013-07-21 19:51:00,
2013-07-21 14:56:00,75.0,73.8,30.03,NW,316,4.0,7.0,96,0.04,,,0.67,Wunderground v.1.15,2013-07-21 19:56:00,
2013-07-21 15:01:00,75.3,74.1,30.03,West,281,2.0,4.0,96,0.00,,,0.68,Wunderground v.1.15,2013-07-21 20:01:00,
2013-07-21 15:06:00,75.5,74.3,30.02,West,281,4.0,6.0,96,0.00,,,0.68,Wunderground v.1.15,2013-07-21 20:06:00,
2013-07-21 15:11:00,75.7,74.2,30.02,WNW,285,2.0,4.0,95,0.00,,,0.68,Wunderground v.1.15,2013-07-21 20:11:00,
2013-07-21 15:16:00,76.0,74.5,30.02,WNW,290,2.0,4.0,95,0.00,,,0.68,Wunderground v.1.15,2013-07-21 20:16:00,
2013-07-21 15:21:00,76.2,74.7,30.02,West,267,2.0,4.0,95,0.00,,,0.68,Wunderground v.1.15,2013-07-21 20:21:00,
2013-07-21 15:26:00,76.4,74.9,30.02,WNW,294,2.0,4.0,95,0.00,,,0.68,Wunderground v.1.15,2013-07-21 20:26:00,
2013-07-21 15:31:00,76.6,74.7,30.02,WNW,282,3.0,5.0,94,0.00,,,0.68,Wunderground v.1.15,2013-07-21 20:31:00,
2013-07-21 15:36:00,76.9,75.0,30.02,West,276,2.0,5.0,94,0.00,,,0.68,Wunderground v.1.15,2013-07-21 20:36:00,
2013-07-21 15:41:00,77.4,75.2,30.02,WNW,294,2.0,5.0,93,0.00,,,0.68,Wunderground v.1.15,2013-07-21 20:41:00,
2013-07-21 15:46:00,77.9,75.7,30.01,WNW,283,3.0,6.0,93,0.00,,,0.68,Wunderground v.1.15,2013-07-21 20:46:00,
2013-07-21 15:51:00,78.3,75.5,30.01,West,271,3.0,5.0,91,0.00,,,0.68,Wunderground v.1.15,2013-07-21 20:51:00,
2013-07-21 15:56:00,78.9,76.0,30.01,WSW,240,1.0,5.0,91,0.00,,,0.68,Wunderground v.1.15,2013-07-21 20:56:00,
2013-07-21 16:01:00,79.6,76.1,30.01,WSW,242,1.0,2.0,89,0.00,,,0.68,Wunderground v.1.15,2013-07-21 21:01:00,
2013-07-21 16:06:00,80.3,76.8,30.01,West,277,1.0,2.0,89,0.00,,,0.68,Wunderground v.1.15,2013-07-21 21:06:00,
2013-07-21 16:11:00,80.1,75.5,30.01,SSW,198,3.0,4.0,86,0.00,,,0.68,Wunderground v.1.15,2013-07-21 21:11:00,
2013-07-21 16:16:00,80.1,75.9,30.01,West,263,1.0,4.0,87,0.00,,,0.68,Wunderground v.1.15,2013-07-21 21:16:00,
2013-07-21 16:21:00,80.2,75.6,30.00,NW,310,3.0,4.0,86,0.00,,,0.68,Wunderground v.1.15,2013-07-21 21:21:00,
2013-07-21 16:26:00,80.0,75.1,30.00,West,263,1.0,5.0,85,0.00,,,0.68,Wunderground v.1.15,2013-07-21 21:26:00,
2013-07-21 16:31:00,80.2,75.3,30.00,WSW,252,2.0,2.0,85,0.00,,,0.68,Wunderground v.1.15,2013-07-21 21:31:00,
2013-07-21 16:36:00,80.5,75.6,30.00,West,263,2.0,4.0,85,0.00,,,0.68,Wunderground v.1.15,2013-07-21 21:36:00,
2013-07-21 16:41:00,80.8,75.5,30.00,WSW,248,0.0,4.0,84,0.00,,,0.68,Wunderground v.1.15,2013-07-21 21:41:00,
2013-07-21 16:46:00,81.4,75.7,30.00,West,264,2.0,4.0,83,0.00,,,0.68,Wunderground v.1.15,2013-07-21 21:46:00,
2013-07-21 16:51:00,81.6,74.8,30.00,West,259,2.0,7.0,80,0.00,,,0.68,Wunderground v.1.15,2013-07-21 21:51:00,
2013-07-21 16:56:00,81.8,75.4,30.00,WSW,249,1.0,7.0,81,0.00,,,0.68,Wunderground v.1.15,2013-07-21 21:56:00,
2013-07-21 17:01:00,82.0,74.8,30.00,WSW,238,2.0,5.0,79,0.00,,,0.68,Wunderground v.1.15,2013-07-21 22:01:00,
2013-07-21 17:06:00,82.1,74.9,30.00,WSW,242,1.0,5.0,79,0.00,,,0.68,Wunderground v.1.15,2013-07-21 22:06:00,
2013-07-21 17:11:00,82.4,76.0,30.00,West,277,1.0,4.0,81,0.00,,,0.68,Wunderground v.1.15,2013-07-21 22:11:00,
2013-07-21 17:16:00,82.4,75.6,30.00,SSW,208,1.0,4.0,80,0.00,,,0.68,Wunderground v.1.15,2013-07-21 22:16:00,
2013-07-21 17:21:00,82.3,75.9,30.00,WSW,252,0.0,2.0,81,0.00,,,0.68,Wunderground v.1.15,2013-07-21 22:21:00,
2013-07-21 17:26:00,82.0,75.6,30.00,WSW,238,1.0,4.0,81,0.00,,,0.68,Wunderground v.1.15,2013-07-21 22:26:00,
2013-07-21 17:31:00,81.8,75.4,29.99,WSW,246,2.0,2.0,81,0.00,,,0.68,Wunderground v.1.15,2013-07-21 22:31:00,
2013-07-21 17:36:00,81.8,75.8,29.99,West,267,2.0,4.0,82,0.00,,,0.68,Wunderground v.1.15,2013-07-21 22:36:00,
2013-07-21 17:41:00,81.6,75.6,30.00,South,184,1.0,2.0,82,0.00,,,0.68,Wunderground v.1.15,2013-07-21 22:41:00,
2013-07-21 17:46:00,81.4,75.4,30.00,SW,224,4.0,5.0,82,0.00,,,0.68,Wunderground v.1.15,2013-07-21 22:46:00,
2013-07-21 17:51:00,81.1,75.1,30.00,SSW,198,4.0,4.0,82,0.00,,,0.68,Wunderground v.1.15,2013-07-21 22:51:00,
2013-07-21 17:56:00,81.0,75.3,30.00,West,264,2.0,7.0,83,0.00,,,0.68,Wunderground v.1.15,2013-07-21 22:56:00,
2013-07-21 18:01:00,80.8,75.2,30.00,WSW,238,0.0,7.0,83,0.00,,,0.68,Wunderground v.1.15,2013-07-21 23:01:00,
2013-07-21 18:06:00,80.8,75.5,30.00,WSW,256,1.0,7.0,84,0.00,,,0.68,Wunderground v.1.15,2013-07-21 23:06:00,
2013-07-21 18:11:00,80.6,75.7,30.00,WSW,239,3.0,4.0,85,0.00,,,0.68,Wunderground v.1.15,2013-07-21 23:11:00,
2013-07-21 18:16:00,80.3,75.4,29.99,WSW,255,2.0,5.0,85,0.00,,,0.68,Wunderground v.1.15,2013-07-21 23:16:00,
2013-07-21 18:21:00,80.3,75.7,29.99,WNW,284,2.0,3.0,86,0.00,,,0.68,Wunderground v.1.15,2013-07-21 23:21:00,
2013-07-21 18:26:00,80.2,75.3,29.99,West,271,5.0,5.0,85,0.00,,,0.68,Wunderground v.1.15,2013-07-21 23:26:00,
2013-07-21 18:31:00,80.2,75.3,29.99,SW,233,4.0,4.0,85,0.00,,,0.68,Wunderground v.1.15,2013-07-21 23:31:00,
2013-07-21 18:36:00,80.2,75.3,29.99,SW,232,2.0,4.0,85,0.00,,,0.68,Wunderground v.1.15,2013-07-21 23:36:00,
2013-07-21 18:41:00,80.3,75.0,30.00,SW,224,1.0,3.0,84,0.00,,,0.68,Wunderground v.1.15,2013-07-21 23:41:00,
2013-07-21 18:46:00,80.5,75.2,30.00,WSW,252,0.0,4.0,84,0.00,,,0.68,Wunderground v.1.15,2013-07-21 23:46:00,
2013-07-21 18:51:00,80.6,74.6,30.00,West,270,1.0,3.0,82,0.00,,,0.68,Wunderground v.1.15,2013-07-21 23:51:00,
2013-07-21 18:56:00,80.5,74.5,30.00,West,269,1.0,5.0,82,0.00,,,0.68,Wunderground v.1.15,2013-07-21 23:56:00,
2013-07-21 19:01:00,80.4,74.4,30.00,SW,217,4.0,7.0,82,0.00,,,0.68,Wunderground v.1.15,2013-07-22 00:01:00,
2013-07-21 19:07:00,80.2,74.2,29.99,West,281,1.0,7.0,82,0.00,,,0.68,Wunderground v.1.15,2013-07-22 00:07:00,
2013-07-21 19:12:00,80.1,74.5,29.99,West,266,2.0,3.0,83,0.00,,,0.68,Wunderground v.1.15,2013-07-22 00:12:00,
2013-07-21 19:17:00,79.9,74.6,30.00,West,270,0.0,3.0,84,0.00,,,0.68,Wunderground v.1.15,2013-07-22 00:17:00,
2013-07-21 19:21:00,79.9,74.6,30.00,WSW,252,1.0,3.0,84,0.00,,,0.68,Wunderground v.1.15,2013-07-22 00:21:00,
2013-07-21 19:26:00,80.3,74.7,29.99,SSW,207,0.0,4.0,83,0.00,,,0.68,Wunderground v.1.15,2013-07-22 00:26:00,
2013-07-21 19:32:00,80.7,74.7,30.00,West,259,0.0,2.0,82,0.00,,,0.68,Wunderground v.1.15,2013-07-22 00:32:00,
2013-07-21 19:37:00,80.5,74.5,30.00,SW,236,0.0,3.0,82,0.00,,,0.68,Wunderground v.1.15,2013-07-22 00:37:00,
2013-07-21 19:42:00,80.5,75.2,30.00,WSW,254,6.0,6.0,84,0.00,,,0.68,Wunderground v.1.15,2013-07-22 00:42:00,
2013-07-21 19:47:00,80.3,74.7,30.00,WSW,253,0.0,6.0,83,0.00,,,0.68,Wunderground v.1.15,2013-07-22 00:47:00,
2013-07-21 19:52:00,80.0,74.7,30.00,WSW,239,1.0,4.0,84,0.00,,,0.68,Wunderground v.1.15,2013-07-22 00:52:00,
2013-07-21 19:57:00,79.6,74.3,29.99,SW,221,1.0,5.0,84,0.00,,,0.68,Wunderground v.1.15,2013-07-22 00:57:00,
2013-07-21 20:02:00,79.4,74.5,29.99,SW,218,2.0,2.0,85,0.00,,,0.68,Wunderground v.1.15,2013-07-22 01:02:00,
2013-07-21 20:07:00,79.2,74.3,29.99,SSW,212,0.0,2.0,85,0.00,,,0.68,Wunderground v.1.15,2013-07-22 01:07:00,
2013-07-21 20:12:00,79.0,74.5,29.99,WSW,248,0.0,4.0,86,0.00,,,0.68,Wunderground v.1.15,2013-07-22 01:12:00,
2013-07-21 20:17:00,78.9,74.4,29.99,WSW,250,0.0,4.0,86,0.00,,,0.68,Wunderground v.1.15,2013-07-22 01:17:00,
2013-07-21 20:22:00,78.8,74.3,29.99,WSW,254,0.0,2.0,86,0.00,,,0.68,Wunderground v.1.15,2013-07-22 01:22:00,
2013-07-21 20:27:00,78.8,74.6,29.99,SW,222,1.0,4.0,87,0.00,,,0.68,Wunderground v.1.15,2013-07-22 01:27:00,
2013-07-21 20:32:00,78.8,74.6,30.00,SW,234,0.0,1.0,87,0.00,,,0.68,Wunderground v.1.15,2013-07-22 01:32:00,
2013-07-21 20:37:00,78.8,74.6,30.00,SW,230,2.0,3.0,87,0.00,,,0.68,Wunderground v.1.15,2013-07-22 01:37:00,
2013-07-21 20:42:00,78.9,74.7,30.00,WSW,246,0.0,3.0,87,0.00,,,0.68,Wunderground v.1.15,2013-07-22 01:42:00,
2013-07-21 20:47:00,79.0,74.8,30.00,SSW,204,1.0,5.0,87,0.00,,,0.68,Wunderground v.1.15,2013-07-22 01:47:00,
2013-07-21 20:52:00,79.1,74.9,30.00,SSW,213,1.0,4.0,87,0.00,,,0.68,Wunderground v.1.15,2013-07-22 01:52:00,
2013-07-21 20:57:00,79.4,74.8,30.00,SSW,196,3.0,7.0,86,0.00,,,0.68,Wunderground v.1.15,2013-07-22 01:57:00,
2013-07-21 21:02:00,79.7,75.1,30.00,SSW,198,2.0,6.0,86,0.00,,,0.68,Wunderground v.1.15,2013-07-22 02:02:00,
2013-07-21 21:07:00,79.9,75.0,30.00,SW,221,1.0,8.0,85,0.00,,,0.68,Wunderground v.1.15,2013-07-22 02:07:00,
2013-07-21 21:12:00,80.1,75.2,30.00,South,188,5.0,8.0,85,0.00,,,0.68,Wunderground v.1.15,2013-07-22 02:12:00,
2013-07-21 21:17:00,80.4,75.1,30.01,SSW,201,4.0,8.0,84,0.00,,,0.68,Wunderground v.1.15,2013-07-22 02:17:00,
2013-07-21 21:22:00,80.6,75.0,30.01,SSW,193,8.0,11.0,83,0.00,,,0.68,Wunderground v.1.15,2013-07-22 02:22:00,
2013-07-21 21:27:00,80.8,74.8,30.01,SSE,159,8.0,11.0,82,0.00,,,0.68,Wunderground v.1.15,2013-07-22 02:27:00,
2013-07-21 21:32:00,81.0,74.6,30.01,SSW,202,6.0,10.0,81,0.00,,,0.68,Wunderground v.1.15,2013-07-22 02:32:00,
2013-07-21 21:37:00,81.1,74.3,30.01,SSW,207,6.0,12.0,80,0.00,,,0.68,Wunderground v.1.15,2013-07-22 02:37:00,
2013-07-21 21:42:00,81.2,75.2,30.01,South,177,6.0,9.0,82,0.00,,,0.68,Wunderground v.1.15,2013-07-22 02:42:00,
2013-07-21 21:47:00,81.2,75.5,30.01,SSW,198,7.0,12.0,83,0.00,,,0.68,Wunderground v.1.15,2013-07-22 02:47:00,
2013-07-21 21:52:00,81.2,75.5,30.01,SSW,193,6.0,14.0,83,0.00,,,0.68,Wunderground v.1.15,2013-07-22 02:52:00,
2013-07-21 21:57:00,81.1,76.2,30.02,SSW,195,11.0,14.0,85,0.00,,,0.68,Wunderground v.1.15,2013-07-22 02:57:00,
2013-07-21 22:02:00,81.0,75.7,30.02,South,176,10.0,10.0,84,0.00,,,0.68,Wunderground v.1.15,2013-07-22 03:02:00,
2013-07-21 22:07:00,81.0,75.7,30.02,SW,221,5.0,10.0,84,0.00,,,0.68,Wunderground v.1.15,2013-07-22 03:07:00,
2013-07-21 22:12:00,80.9,76.0,30.02,SSW,205,4.0,9.0,85,0.00,,,0.68,Wunderground v.1.15,2013-07-22 03:12:00,
2013-07-21 22:17:00,80.9,76.0,30.02,South,187,6.0,10.0,85,0.00,,,0.68,Wunderground v.1.15,2013-07-22 03:17:00,
2013-07-21 22:22:00,80.9,76.0,30.02,SSW,195,5.0,9.0,85,0.00,,,0.68,Wunderground v.1.15,2013-07-22 03:22:00,
2013-07-21 22:27:00,80.9,76.0,30.02,South,184,3.0,10.0,85,0.00,,,0.68,Wunderground v.1.15,2013-07-22 03:27:00,
2013-07-21 22:32:00,81.0,76.4,30.02,SSW,210,6.0,10.0,86,0.00,,,0.68,Wunderground v.1.15,2013-07-22 03:32:00,
2013-07-21 22:37:00,81.0,76.4,30.02,SSW,194,7.0,11.0,86,0.00,,,0.68,Wunderground v.1.15,2013-07-22 03:37:00,
2013-07-21 22:42:00,81.0,76.8,30.02,South,184,9.0,11.0,87,0.00,,,0.68,Wunderground v.1.15,2013-07-22 03:42:00,
2013-07-21 22:47:00,81.0,77.1,30.02,South,169,8.0,12.0,88,0.00,,,0.68,Wunderground v.1.15,2013-07-22 03:47:00,
2013-07-21 22:52:00,81.0,77.1,30.02,SSW,200,7.0,12.0,88,0.00,,,0.68,Wunderground v.1.15,2013-07-22 03:52:00,
2013-07-21 22:57:00,81.0,77.1,30.03,SSW,198,6.0,12.0,88,0.00,,,0.68,Wunderground v.1.15,2013-07-22 03:57:00,
2013-07-21 23:01:00,81.0,77.1,30.02,SW,224,6.0,9.0,88,0.00,,,0.68,Wunderground v.1.15,2013-07-22 04:01:00,
2013-07-21 23:06:00,81.0,77.4,30.02,South,183,7.0,10.0,89,0.00,,,0.68,Wunderground v.1.15,2013-07-22 04:06:00,
2013-07-21 23:11:00,81.0,77.1,30.02,South,179,5.0,11.0,88,0.00,,,0.68,Wunderground v.1.15,2013-07-22 04:11:00,
2013-07-21 23:16:00,81.1,77.9,30.02,SSW,200,9.0,11.0,90,0.00,,,0.68,Wunderground v.1.15,2013-07-22 04:16:00,
2013-07-21 23:21:00,81.0,77.4,30.03,SW,215,9.0,11.0,89,0.00,,,0.68,Wunderground v.1.15,2013-07-22 04:21:00,
2013-07-21 23:26:00,81.0,77.1,30.03,SSW,198,8.0,13.0,88,0.00,,,0.68,Wunderground v.1.15,2013-07-22 04:26:00,
2013-07-21 23:31:00,81.0,77.1,30.03,South,187,6.0,11.0,88,0.00,,,0.68,Wunderground v.1.15,2013-07-22 04:31:00,
2013-07-21 23:36:00,80.9,77.0,30.03,SSE,167,7.0,11.0,88,0.00,,,0.68,Wunderground v.1.15,2013-07-22 04:36:00,
2013-07-21 23:41:00,80.9,77.4,30.03,South,180,6.0,8.0,89,0.00,,,0.68,Wunderground v.1.15,2013-07-22 04:41:00,
2013-07-21 23:46:00,80.8,77.3,30.03,South,178,8.0,9.0,89,0.00,,,0.68,Wunderground v.1.15,2013-07-22 04:46:00,
2013-07-21 23:51:00,80.8,77.3,30.03,SSW,198,1.0,8.0,89,0.00,,,0.68,Wunderground v.1.15,2013-07-22 04:51:00,
2013-07-21 23:56:00,80.8,77.6,30.03,SSE,158,7.0,9.0,90,0.00,,,0.00,Wunderground v.1.15,2013-07-22 04:56:00,